Temp
68 68 67 68 68 67 68 68 67 66 66 64 65 64 61 62 63 66 65 64 65 64 63 63 62 63 63 61 61 60 58 59 59 59 59 57 57 57 59 60 61 59 59
66 66 67 67 67 68 68 67 68 66 67 69 68 67 64 63 65 65 64 64 63 63 62 61 62 62 61 59 59 58 57 59 57 58 56 54 54 56 56 58 58 55 59
66 67 65 66 67 68 67 68 68 67 67 68 67 63 61 60 61 62 62 63 62 63 62 61 60 59 60 59 58 57 56 55 54 54 57 53 52 53 55 53 56 55 57
67 69 68 67 66 67 68 68 68 67 67 66 66 63 63 62 62 60 61 61 60 60 61 60 59 58 58 57 57 55 52 55 54 54 56 55 54 51 49 54 55 54 54
67 68 69 70 70 68 66 67 67 66 66 64 64 62 62 62 59 58 57 57 58 59 59 59 57 57 57 56 55 53 53 55 55 56 54 53 53 51 48 46 50 54 55
67 69 70 70 70 67 66 66 64 65 64 63 64 62 61 58 56 53 53 55 57 56 57 58 57 57 56 54 54 49 49 54 54 55 53 53 51 51 48 46 47 46 50
68 68 67 67 68 64 64 65 63 62 60 61 61 62 60 59 58 53 50 51 54 55 55 56 56 55 53 51 47 49 53 53 53 52 53 53 52 52 50 48 47 45 50
68 69 70 69 68 64 65 65 64 63 61 61 62 61 61 61 58 54 52 53 56 57 56 56 56 55 52 51 53 54 53 52 52 51 51 53 52 51 50 48 46 43 46
65 67 69 69 68 65 64 65 66 66 64 61 62 61 61 60 57 55 57 56 57 56 54 54 49 54 54 49 50 53 52 52 51 51 51 50 52 51 50 49 48 45 39
62 64 66 66 67 66 66 65 67 67 67 63 62 62 62 60 60 57 55 54 55 56 54 53 54 53 49 53 51 53 52 51 52 52 50 50 51 50 50 50 49 47 44
63 64 64 65 66 66 66 65 66 66 64 64 62 61 60 59 57 55 53 54 55 55 54 51 53 48 48 50 50 51 51 50 51 50 49 49 50 49 49 48 48 46 45
64 64 64 63 63 63 64 63 63 63 62 60 58 59 58 56 54 54 55 55 55 54 52 51 48 50 49 49 48 47 50 49 49 50 48 48 49 48 48 48 46 46 46
63 62 62 62 62 61 60 60 60 60 58 57 58 57 56 55 54 55 55 54 53 51 50 50 47 47 48 49 48 48 49 49 49 49 48 49 48 47 48 46 46 46 44
62 62 61 60 60 60 60 61 58 58 57 57 57 56 55 55 55 55 53 52 53 47 48 49 51 51 51 50 46 46 48 47 48 47 47 48 47 47 48 46 45 44 42
59 59 59 60 60 60 59 59 58 56 56 56 56 55 54 55 54 52 49 48 49 49 48 50 48 48 47 46 44 48 48 47 47 47 47 47 46 44 44 45 45 43 41
56 57 58 58 58 58 59 57 56 55 56 56 55 54 53 54 50 48 46 45 45 45 50 49 47 45 44 40 40 41 47 47 46 47 47 47 41 41 38 37 38 41 41
51 52 52 53 54 56 56 56 55 55 54 53 53 52 52 48 46 46 45 44 44 45 44 43 44 42 43 40 40 39 45 47 47 46 47 46 45 41 44 39 37 35 34
48 48 49 50 50 52 52 52 53 52 51 51 50 50 50 47 45 45 43 42 44 42 42 44 43 43 45 39 39 37 45 46 46 46 46 45 45 44 43 42 41 41 40
46 46 47 47 48 48 49 49 48 48 48 47 47 48 48 46 44 42 41 41 41 43 44 43 41 39 42 39 38 38 43 43 43 44 44 44 44 41 37 39 38 39 39
46 45 46 46 46 46 48 47 46 46 44 45 46 48 48 46 45 45 45 43 44 43 40 39 40 42 42 39 37 38 41 40 41 42 42 37 41 37 35 37 36 34 38
44 44 45 44 45 47 47 45 45 44 46 47 48 47 47 45 44 43 42 41 40 41 42 41 42 42 42 42 37 37 39 39 39 40 41 41 35 35 35 35 36 34 38
43 45 43 43 44 47 46 43 41 45 46 44 42 41 41 42 44 44 43 43 42 40 40 37 40 41 41 38 38 36 36 39 36 37 40 40 36 35 35 36 36 33 32
43 44 43 42 43 44 45 42 41 43 43 42 41 41 41 41 41 41 41 41 41 39 38 38 37 39 40 41 37 35 35 35 35 39 38 35 35 34 34 35 35 33 32
42 43 42 40 39 40 40 41 41 42 40 39 38 39 39 39 40 41 40 39 38 37 36 36 35 36 36 37 39 39 39 37 35 35 37 35 34 34 35 35 34 33 33
41 41 39 37 36 37 36 38 39 39 37 37 36 36 36 36 37 37 36 35 37 35 34 35 35 32 32 33 32 32 32 34 35 33 34 34 33 32 32 32 32 34 33
39 38 37 35 34 33 33 35 37 37 36 35 34 32 33 33 34 33 34 33 32 32 32 32 32 32 30 29 30 31 30 30 32 32 32 32 32 31 31 30 31 32 31
MSLP
1015.89 1016.52 1017.08 1017.52 1017.97 1018.50 1018.91 1019.15 1019.50 1019.89 1020.48 1021.02 1021.38 1021.87 1022.16 1022.88 1023.30 1023.27 1023.59 1023.70 1024.03 1024.56 1025.03 1025.42 1026.01 1026.16 1026.33 1026.67 1026.90 1027.43 1027.99 1028.16 1028.20 1027.86 1027.87 1028.14 1028.43 1028.43 1028.39 1028.38 1028.20 1028.26 1028.25
1015.33 1015.71 1016.23 1016.90 1017.41 1017.83 1018.20 1018.62 1019.07 1019.60 1020.22 1020.41 1020.72 1021.23 1022.09 1022.87 1022.75 1023.07 1023.54 1023.93 1024.13 1024.49 1024.92 1025.30 1025.66 1026.16 1026.44 1026.86 1027.19 1027.48 1027.80 1027.87 1027.76 1027.56 1027.82 1027.50 1027.97 1028.20 1028.33 1028.40 1028.42 1028.61 1028.48
1014.16 1014.71 1015.36 1015.69 1016.36 1016.77 1017.26 1017.98 1018.75 1019.35 1019.82 1020.05 1020.62 1021.57 1022.37 1022.85 1023.26 1023.54 1023.50 1023.89 1024.13 1024.49 1024.90 1025.29 1025.41 1026.03 1026.49 1027.00 1027.27 1027.27 1027.02 1027.74 1027.88 1027.58 1027.45 1027.13 1027.12 1027.71 1028.09 1028.27 1028.40 1028.59 1028.43
1013.79 1013.79 1014.28 1014.97 1015.38 1015.89 1016.85 1017.52 1017.99 1018.55 1019.25 1019.84 1020.28 1020.49 1021.13 1021.82 1022.23 1023.11 1023.46 1023.84 1024.30 1024.71 1024.93 1025.22 1025.49 1025.99 1026.46 1026.72 1027.16 1027.79 1027.78 1027.37 1027.44 1027.75 1027.76 1027.75 1027.82 1027.56 1027.25 1027.82 1028.00 1028.24 1028.20
1012.76 1012.96 1013.28 1013.71 1014.30 1015.41 1016.15 1016.80 1017.60 1018.38 1019.01 1019.73 1020.06 1020.46 1020.81 1021.31 1022.20 1023.00 1023.65 1024.23 1024.61 1024.73 1025.00 1025.31 1025.50 1025.60 1025.91 1026.36 1026.31 1027.53 1027.98 1027.61 1027.35 1027.29 1027.41 1027.63 1027.87 1028.07 1027.80 1027.07 1027.39 1027.76 1027.74
1011.55 1012.04 1012.61 1013.28 1013.92 1014.98 1015.54 1016.22 1017.03 1017.77 1018.54 1019.22 1019.49 1019.99 1020.22 1020.81 1021.89 1022.83 1023.44 1023.96 1024.30 1024.75 1024.84 1025.15 1025.32 1025.38 1025.55 1025.96 1026.57 1027.05 1027.31 1027.03 1027.05 1027.35 1027.49 1027.45 1027.52 1027.49 1027.69 1027.45 1027.38 1027.55 1027.60
1010.76 1011.08 1011.79 1012.40 1013.17 1014.11 1014.95 1015.76 1016.53 1017.60 1018.60 1018.96 1019.32 1019.53 1019.87 1020.42 1021.01 1021.90 1022.47 1023.44 1023.92 1024.15 1024.25 1024.50 1025.01 1025.05 1025.50 1026.11 1026.54 1026.77 1026.69 1026.60 1027.06 1027.24 1027.20 1027.42 1027.53 1027.73 1027.77 1027.78 1027.36 1027.41 1027.30
1009.77 1009.93 1010.16 1010.97 1012.04 1013.13 1014.12 1014.96 1015.60 1016.40 1016.29 1017.62 1018.47 1019.26 1019.66 1019.86 1020.48 1021.13 1021.75 1022.34 1022.74 1023.33 1024.19 1024.67 1024.89 1025.15 1025.52 1026.12 1026.57 1026.26 1026.25 1026.38 1026.67 1026.83 1026.91 1027.02 1027.31 1027.62 1027.73 1027.65 1027.50 1026.96 1026.77
1009.39 1009.40 1009.81 1010.57 1011.48 1012.51 1013.10 1013.50 1014.47 1015.51 1015.95 1016.95 1017.95 1018.41 1019.05 1019.37 1019.89 1020.60 1021.35 1021.71 1022.34 1022.97 1023.70 1024.15 1024.69 1024.84 1025.25 1025.77 1025.77 1025.84 1025.90 1026.08 1026.36 1026.52 1026.79 1027.01 1027.08 1027.27 1027.39 1027.48 1027.42 1027.16 1026.62
1009.43 1009.66 1009.96 1010.46 1011.34 1012.17 1012.88 1013.71 1014.19 1014.54 1015.01 1016.32 1016.97 1017.45 1018.04 1018.67 1019.40 1020.34 1020.83 1021.44 1022.14 1022.54 1023.27 1023.75 1024.06 1024.50 1025.25 1025.13 1025.06 1025.26 1025.46 1025.83 1026.08 1026.29 1026.56 1026.75 1026.83 1026.92 1026.97 1027.02 1027.17 1027.18 1026.87
1008.99 1009.50 1010.07 1010.63 1011.24 1011.97 1012.62 1013.27 1013.83 1014.16 1014.89 1015.62 1016.30 1016.90 1017.46 1018.11 1019.04 1019.79 1020.37 1020.89 1021.54 1022.14 1022.67 1023.24 1023.63 1024.17 1024.23 1024.37 1024.94 1025.27 1025.32 1025.67 1025.86 1026.14 1026.30 1026.36 1026.49 1026.52 1026.62 1026.74 1026.86 1026.87 1026.86
1009.28 1009.45 1009.90 1010.49 1011.14 1011.83 1012.53 1013.07 1013.78 1014.21 1014.80 1015.45 1015.99 1016.51 1017.24 1017.88 1018.61 1019.11 1019.74 1020.55 1020.99 1021.74 1022.27 1022.91 1023.61 1024.11 1024.33 1024.63 1024.71 1025.07 1025.19 1025.30 1025.45 1025.65 1025.85 1025.76 1025.90 1026.11 1026.16 1026.24 1026.30 1026.43 1026.48
1009.45 1009.67 1009.97 1010.58 1011.21 1011.95 1012.51 1013.23 1013.61 1014.27 1014.82 1015.48 1015.99 1016.47 1017.13 1017.90 1018.48 1018.88 1019.60 1020.11 1020.39 1021.20 1021.97 1022.47 1022.87 1022.73 1023.42 1024.32 1024.66 1024.83 1024.87 1024.80 1024.84 1024.89 1024.98 1025.01 1025.24 1025.40 1025.50 1025.70 1025.80 1025.92 1026.22
1009.48 1009.97 1010.58 1011.10 1011.64 1012.08 1012.43 1012.92 1013.48 1014.23 1015.17 1015.89 1016.43 1016.88 1017.46 1018.05 1018.60 1018.97 1019.53 1020.01 1020.49 1021.13 1021.35 1022.01 1022.37 1023.05 1023.59 1024.23 1024.83 1024.93 1024.79 1024.66 1024.53 1024.33 1024.32 1024.28 1024.52 1024.67 1024.78 1025.10 1025.32 1025.59 1025.79
1009.85 1010.39 1010.81 1011.20 1011.71 1012.15 1012.64 1013.14 1014.03 1014.55 1015.14 1015.64 1016.13 1016.62 1017.18 1017.81 1018.37 1019.16 1019.80 1020.40 1020.74 1021.33 1021.85 1021.82 1022.73 1023.30 1023.95 1024.32 1024.36 1024.37 1024.34 1024.01 1023.80 1023.67 1023.56 1023.59 1023.76 1024.10 1024.33 1024.68 1024.86 1025.16 1025.32
1010.79 1011.08 1011.43 1011.68 1012.01 1012.47 1012.84 1013.40 1013.91 1014.54 1015.04 1015.51 1016.11 1016.72 1017.38 1018.05 1018.68 1019.36 1020.10 1020.77 1021.43 1021.98 1022.11 1023.38 1023.88 1024.14 1023.79 1024.17 1024.42 1024.20 1023.82 1023.34 1023.19 1022.80 1022.79 1022.91 1023.60 1023.81 1024.13 1024.45 1024.62 1024.74 1024.85
1012.22 1012.37 1012.64 1012.86 1013.07 1013.23 1013.44 1013.88 1014.54 1015.07 1015.53 1016.11 1016.66 1017.16 1017.73 1018.44 1019.12 1019.70 1020.33 1021.09 1021.62 1022.10 1023.08 1023.11 1023.38 1023.47 1023.92 1024.11 1023.85 1023.70 1023.46 1022.96 1022.46 1022.24 1022.17 1022.25 1022.63 1023.11 1023.12 1023.70 1024.02 1024.41 1024.73
1013.47 1013.72 1013.96 1014.15 1014.30 1014.36 1014.53 1015.00 1015.38 1015.78 1016.24 1016.81 1017.35 1017.84 1018.29 1018.95 1019.63 1020.19 1020.91 1021.63 1022.10 1022.60 1022.60 1023.19 1023.55 1023.68 1023.56 1023.55 1023.42 1023.31 1022.96 1022.39 1021.90 1021.71 1021.60 1021.64 1021.78 1022.12 1022.50 1022.92 1023.18 1023.35 1023.67
1014.52 1014.71 1014.98 1015.16 1015.35 1015.52 1015.86 1016.04 1016.48 1016.98 1017.48 1018.04 1018.42 1018.78 1019.20 1019.75 1020.42 1021.01 1021.60 1022.10 1022.49 1022.81 1022.92 1023.07 1023.19 1023.24 1022.99 1022.95 1022.98 1022.97 1022.50 1021.87 1021.36 1021.15 1021.00 1021.00 1021.07 1021.38 1022.02 1022.33 1022.42 1022.53 1022.66
1015.27 1015.47 1015.90 1016.19 1016.31 1016.69 1016.85 1017.02 1017.65 1018.12 1018.56 1018.98 1019.39 1019.78 1020.21 1020.66 1021.09 1021.52 1021.87 1022.20 1022.53 1022.63 1022.73 1022.85 1022.85 1022.73 1022.65 1022.53 1022.52 1022.41 1022.04 1021.38 1020.91 1020.60 1020.42 1020.51 1020.48 1020.75 1021.22 1021.46 1021.64 1021.68 1021.54
1016.10 1016.41 1016.61 1016.80 1017.23 1017.55 1017.62 1017.88 1018.59 1019.13 1019.73 1020.05 1020.31 1020.62 1020.97 1021.29 1021.59 1021.87 1022.16 1022.41 1022.52 1022.58 1022.57 1022.53 1022.40 1022.36 1022.21 1021.92 1021.81 1021.67 1021.48 1020.99 1020.41 1020.03 1019.68 1019.65 1019.72 1019.97 1020.18 1020.33 1020.71 1020.64 1020.92
1016.66 1016.86 1016.99 1017.55 1018.15 1018.38 1018.46 1019.17 1019.78 1020.25 1020.51 1020.86 1021.21 1021.51 1021.73 1021.82 1021.96 1022.12 1022.30 1022.41 1022.47 1022.45 1022.36 1022.24 1021.97 1021.76 1021.61 1021.36 1021.09 1020.84 1020.60 1020.24 1019.99 1019.36 1019.06 1018.93 1018.97 1019.03 1019.11 1019.38 1019.36 1019.83 1020.50
1017.07 1017.45 1017.65 1018.28 1019.03 1019.41 1019.64 1020.03 1020.71 1020.90 1021.21 1021.50 1021.87 1022.19 1022.34 1022.47 1022.55 1022.48 1022.48 1022.46 1022.52 1022.51 1022.37 1022.15 1021.74 1021.31 1021.24 1021.02 1020.84 1020.39 1020.01 1019.64 1019.30 1018.56 1018.09 1017.99 1018.16 1018.23 1018.26 1018.27 1018.45 1018.95 1019.35
1017.55 1018.04 1018.47 1019.23 1020.05 1020.62 1020.83 1021.00 1021.38 1021.62 1021.84 1022.23 1022.63 1022.86 1022.87 1022.95 1023.02 1022.98 1023.00 1022.89 1022.86 1022.74 1022.50 1022.23 1021.84 1021.52 1021.37 1021.11 1020.70 1020.24 1019.63 1018.99 1018.49 1018.00 1017.55 1017.24 1017.06 1017.13 1017.08 1017.33 1017.72 1017.98 1018.13
1018.12 1018.69 1019.35 1020.21 1021.05 1021.51 1021.74 1022.02 1022.22 1022.31 1022.57 1022.98 1023.29 1023.39 1023.44 1023.36 1023.33 1023.41 1023.60 1023.60 1023.53 1023.52 1023.11 1022.68 1022.35 1021.87 1021.40 1021.37 1021.31 1020.73 1019.89 1019.09 1018.22 1017.60 1016.89 1016.38 1016.04 1015.97 1016.15 1016.39 1016.53 1016.77 1016.94
1018.63 1019.40 1020.28 1021.01 1021.77 1022.17 1022.49 1022.78 1022.94 1023.00 1023.11 1023.44 1023.73 1023.97 1023.89 1023.96 1023.91 1023.82 1023.76 1024.09 1024.10 1023.80 1023.56 1023.27 1022.99 1022.67 1022.44 1021.77 1021.05 1020.29 1019.53 1018.57 1017.62 1016.69 1015.96 1015.25 1015.02 1014.79 1014.80 1015.09 1015.44 1015.76 1015.91
Wind_Speed
11 13 15 16 17 15 15 15 13 12 10 7 7 6 5 5 4 5 8 9 9 10 10 8 7 6 5 5 5 4 3 2 1 3 2 3 3 3 3 2 2 3 3
12 13 16 17 18 18 17 16 15 13 12 10 8 4 6 5 5 5 7 9 11 11 9 10 8 7 6 6 5 5 4 2 1 1 2 2 5 4 4 2 1 2 1
15 13 16 19 18 19 19 15 14 13 13 12 8 4 6 4 4 7 7 8 10 10 11 10 9 8 6 5 5 6 7 3 2 4 2 2 2 2 3 4 2 2 2
16 15 16 17 18 16 13 14 15 15 13 14 13 13 11 10 6 7 7 8 9 10 11 10 10 8 6 7 4 2 2 5 4 4 2 1 2 3 4 2 3 3 5
18 19 18 18 18 15 15 15 14 14 14 13 13 10 10 5 6 7 10 8 8 10 10 10 11 10 7 7 9 7 4 3 3 2 3 2 2 3 5 7 4 4 4
18 18 17 16 15 13 14 14 13 14 12 12 14 15 14 12 11 10 9 8 8 8 11 10 9 10 9 10 8 6 7 6 4 3 3 3 3 3 5 6 7 7 6
17 17 17 17 16 18 17 14 14 11 6 12 13 15 15 15 16 14 10 10 9 9 12 12 10 8 7 7 7 8 7 6 4 5 4 3 4 3 4 6 7 7 5
16 19 20 17 18 18 19 19 19 16 20 17 16 13 14 9 8 11 10 10 11 10 11 9 8 9 9 7 8 5 5 6 5 6 5 4 4 4 5 7 6 8 7
13 18 16 16 15 16 20 21 21 18 15 16 13 14 13 13 11 14 13 10 12 10 13 11 8 11 10 9 8 6 7 6 6 5 5 5 5 5 5 6 6 7 9
7 10 12 12 11 14 15 16 17 19 19 16 14 13 15 14 13 12 15 14 12 14 14 11 11 11 8 10 8 7 6 6 5 5 6 6 6 6 5 6 6 6 8
6 7 8 9 11 11 13 15 16 16 14 14 14 13 13 14 12 12 12 14 14 15 15 11 12 10 9 8 6 4 4 7 7 7 8 9 8 6 6 6 6 7 7
6 6 6 7 8 9 10 11 11 13 12 11 12 12 11 12 13 13 14 15 15 13 11 10 8 5 3 5 6 5 6 9 10 10 9 10 6 9 8 7 8 7 8
4 5 5 5 5 6 7 9 9 9 8 7 9 9 9 11 12 12 14 14 14 12 8 9 8 10 9 7 4 5 10 10 11 11 10 11 9 10 8 8 7 7 6
4 4 3 3 4 5 7 7 5 4 6 6 7 8 9 9 10 10 10 12 13 10 11 10 9 8 6 5 2 8 11 11 10 11 11 11 11 12 10 9 9 7 7
3 1 2 3 5 5 5 5 8 9 8 8 8 7 7 7 8 8 6 5 6 5 4 10 7 6 4 2 5 10 12 12 12 11 11 11 13 12 9 6 9 8 7
8 8 6 4 3 2 1 2 3 4 5 6 5 5 7 7 7 6 6 6 6 5 8 5 5 2 1 5 11 10 10 10 11 11 11 12 11 12 12 13 10 9 9
10 11 10 9 8 7 5 5 4 5 5 5 5 7 8 8 7 7 9 8 8 10 6 5 5 2 6 10 11 9 9 10 11 11 11 10 9 10 11 12 12 12 13
9 9 8 9 9 10 11 10 10 10 9 9 8 8 9 11 11 11 11 8 7 5 5 2 3 6 9 8 12 11 12 11 12 11 12 13 12 12 12 11 11 12 11
8 9 9 10 11 11 11 12 13 12 12 11 11 10 11 13 12 10 8 6 4 2 2 2 5 6 9 10 12 11 10 10 12 10 11 12 13 12 16 11 11 12 11
9 11 11 11 12 11 12 14 13 13 13 12 12 12 12 11 9 7 5 3 2 3 1 5 7 10 10 11 12 10 7 10 8 10 10 12 14 12 16 13 11 11 12
11 11 12 13 13 12 14 17 15 15 12 11 10 9 8 7 5 4 2 1 2 4 6 7 8 9 10 11 13 12 8 8 8 8 9 9 16 18 19 20 12 12 11
12 12 14 14 13 13 15 15 13 9 9 9 9 8 7 6 5 6 5 5 5 6 7 7 8 8 9 11 12 15 15 13 9 11 9 10 14 19 21 17 18 17 10
13 13 15 16 13 12 12 14 10 10 10 10 10 8 7 7 6 5 5 5 5 5 7 7 8 9 8 9 12 16 17 17 12 10 13 16 14 17 15 20 18 15 10
14 14 16 15 14 11 12 11 9 9 10 10 9 7 7 6 6 4 4 5 6 7 7 8 10 10 10 10 10 9 11 12 10 13 12 13 13 12 10 8 10 10 11
13 13 14 13 13 12 12 11 9 9 9 8 6 6 5 7 6 6 6 6 6 8 9 8 9 9 10 11 19 18 13 12 12 13 11 9 10 10 9 8 9 10 10
14 14 14 14 12 12 11 10 9 9 7 7 6 6 5 5 5 6 6 7 9 11 13 15 12 9 16 25 26 26 29 27 22 12 11 11 9 10 9 9 9 10 11
Wind_Direction
213 199 198 198 201 205 208 206 196 189 177 172 174 176 171 164 185 178 170 153 145 146 142 130 130 128 134 120 111 111 142 131 122 204 127 140 124 152 165 152 123 91 83
210 201 196 198 204 207 209 207 204 185 189 186 177 177 168 182 171 159 160 159 152 149 142 142 140 139 126 124 144 172 165 153 120 243 276 208 181 201 194 185 154 55 14
229 210 199 201 202 208 205 202 200 195 195 187 163 127 115 107 162 170 154 154 149 152 150 150 140 137 139 146 164 180 175 184 175 175 268 234 286 300 167 203 222 259 268
226 226 215 207 208 208 197 199 199 196 194 186 186 181 190 182 179 172 157 154 155 156 154 147 144 141 146 154 146 207 232 178 168 172 158 62 339 306 284 185 238 247 264
215 218 218 218 213 198 193 194 192 194 194 196 198 194 187 169 145 148 149 159 161 158 153 156 154 155 151 153 157 164 182 171 183 194 173 178 191 220 269 291 286 272 279
218 218 215 212 213 197 191 191 185 193 191 201 202 199 187 160 159 158 161 169 166 166 169 166 165 157 153 159 173 166 181 167 152 167 166 220 253 263 264 277 291 296 293
225 223 208 201 195 188 189 187 181 178 178 206 205 204 184 171 172 172 168 165 178 186 184 173 168 159 160 164 164 181 171 153 171 178 188 206 232 261 265 275 282 290 307
224 226 222 209 197 186 182 187 186 179 173 210 207 200 187 180 185 176 173 185 190 181 169 172 166 162 164 169 192 176 169 168 183 191 198 216 233 237 249 263 277 283 273
227 229 227 214 201 185 186 189 193 193 198 202 197 191 192 192 190 188 193 183 184 175 173 174 171 171 180 183 176 180 182 183 194 204 214 230 246 245 242 238 242 268 289
228 233 231 221 200 188 191 192 198 200 203 201 196 200 200 197 193 187 193 187 181 177 176 178 180 179 180 183 177 189 176 192 204 218 224 229 240 246 239 235 233 241 266
262 228 219 211 199 190 190 190 199 202 199 201 201 200 201 195 190 190 185 186 179 181 181 178 183 180 187 178 189 209 182 211 221 222 231 237 236 239 227 220 234 246 252
249 246 212 196 187 191 186 191 195 199 205 201 194 204 194 186 189 192 188 190 185 182 178 182 187 177 161 180 189 205 212 216 221 232 228 238 223 231 228 227 237 245 252
217 224 221 217 197 189 189 179 194 194 198 195 203 198 196 196 199 197 198 191 180 179 177 173 172 168 180 189 184 222 237 226 231 234 230 236 223 230 228 227 238 243 247
238 203 181 178 170 178 195 187 188 172 168 192 203 200 198 201 206 198 185 178 178 170 178 184 180 178 166 171 193 270 256 247 244 243 238 234 225 232 230 234 239 245 245
54 77 169 166 161 190 189 173 161 169 173 179 186 200 180 177 170 158 143 148 162 159 161 163 150 133 135 132 260 266 261 256 252 247 239 234 228 229 239 232 236 235 245
75 75 76 81 93 162 215 122 121 150 176 187 187 157 157 152 127 117 118 114 105 110 133 101 74 83 62 304 272 271 279 269 257 257 245 236 223 227 211 212 230 239 241
75 73 69 61 52 48 49 68 96 127 132 124 121 119 126 118 106 107 104 101 104 111 99 92 43 304 303 265 277 287 291 278 269 259 252 240 226 219 225 218 217 209 217
85 75 75 75 60 62 65 72 73 75 80 82 89 100 108 106 106 105 100 95 106 98 87 178 257 261 261 289 285 290 291 279 270 260 253 244 233 220 219 224 224 228 224
90 83 77 79 79 76 82 86 81 83 83 85 89 95 104 105 97 94 94 95 84 132 211 252 244 253 269 263 276 287 289 281 276 266 253 241 236 226 207 215 224 231 237
85 87 83 86 84 80 89 89 87 88 86 89 92 95 99 91 90 94 91 85 220 281 266 249 252 267 275 279 274 279 280 280 276 271 258 231 236 221 202 213 222 234 239
105 103 95 88 87 94 94 88 89 88 95 95 92 84 76 77 67 66 63 32 325 288 284 281 279 275 274 279 266 268 270 266 277 272 269 249 227 223 212 208 218 225 237
112 103 97 90 87 91 92 90 88 89 83 77 74 68 61 54 45 30 7 347 331 313 303 297 294 288 284 272 273 264 258 260 257 262 264 260 236 227 223 218 220 221 215
111 107 103 97 83 82 89 91 82 86 83 75 66 58 57 47 37 25 6 344 339 319 312 306 304 305 307 301 295 284 279 270 258 250 248 248 238 237 235 232 222 217 209
117 114 107 99 91 80 78 80 82 86 83 78 67 56 53 38 32 24 15 355 350 340 333 329 323 321 321 319 318 311 307 300 278 270 263 247 239 238 243 233 227 223 218
119 114 109 104 97 89 78 72 74 84 84 79 65 50 38 26 19 22 11 4 0 349 337 334 328 326 328 342 344 335 326 314 298 288 277 256 239 232 227 225 225 230 220
124 116 112 109 101 90 80 70 64 67 76 70 51 37 31 22 16 8 357 35 359 357 356 348 347 344 356 345 340 339 333 316 295 289 281 258 243 231 223 218 228 229 227